Ellsworth AFB, SD

4:30 AM MDT on May 26, 2017 (GMT -0600)
Ellsworth Air Force Base

Weather History for KRCA - September, 2013

Change the Weather History Date:

Tuesday, September 24, 2013

  Actual Average Record
Temperature  
Mean Temperature 58 °F -  
Max Temperature 75 °F 67 °F 87 °F (2014)
Min Temperature 42 °F 42 °F 26 °F (2000)
Degree Days  
Heating Degree Days 6    
Growing Degree Days 8 (Base 50)    
Moisture  
Dew Point 42 °F    
Average Humidity 56    
Maximum Humidity 86    
Minimum Humidity 28    
Precipitation  
Precipitation 0.00 in - - ()
Sea Level Pressure  
Sea Level Pressure 29.91 in    
Wind  
Wind Speed 9 mph (SSW)    
Max Wind Speed 22 mph    
Max Gust Speed 34 mph    
Visibility 10 miles    
Events      
Averages and records for this station are not official NWS values.
T = Trace of Precipitation, MM = Missing Value Source: NWS Daily Summary

Daily Weather History Graph

Daily Weather History Graph

Search for Another Location

Airport or City:

Trip Planner

Search our weather history database for the weather conditions in past years. The results will help you decide how hot, cold, wet, or windy it might be!

Date:

Astronomy

Sep. 24, 2013 Rise Set
Actual Time 6:42 AM MDT 6:45 PM MDT
Civil Twilight 6:13 AM MDT 7:14 PM MDT
Nautical Twilight 5:39 AM MDT 7:48 PM MDT
Astronomical Twilight 5:05 AM MDT 8:22 PM MDT
Moon 9:53 PM MDT (9/24) 12:09 PM MDT (9/24)
Length of Visible Light 13h 00m
Length of Day
12h 03m
Waning Gibbous, 72% of the Moon is Illuminated
Sep 24
Waning Gibbous
Sep 26
Last Quarter
Oct 4
New
Oct 11
First Quarter
Oct 18
Full

Hourly Weather History & Observations

Time (MDT) Temp. Windchill Dew Point Humidity Pressure Visibility Wind Dir Wind Speed Gust Speed Precip Events Conditions
12:58 AM 48.7 °F - 44.1 °F 84% 29.95 in 10.0 mi WSW 6.9 mph - N/A   Clear
1:58 AM 47.7 °F - 42.8 °F 83% 29.97 in 10.0 mi West 5.8 mph - N/A   Clear
2:58 AM 45.9 °F 44.6 °F 41.7 °F 85% 29.97 in 10.0 mi West 3.5 mph - N/A   Clear
3:58 AM 47.3 °F - 40.6 °F 78% 29.97 in 10.0 mi West 4.6 mph - N/A   Clear
4:58 AM 43.9 °F 40.5 °F 39.4 °F 84% 29.99 in 10.0 mi West 5.8 mph - N/A   Clear
5:58 AM 42.6 °F 38.4 °F 38.7 °F 86% 30.01 in 10.0 mi West 6.9 mph - N/A   Clear
6:58 AM 42.4 °F 38.1 °F 38.3 °F 85% 30.02 in 10.0 mi WNW 6.9 mph - N/A   Clear
7:58 AM 48.7 °F - 43.3 °F 82% 30.03 in 10.0 mi WNW 2.3 mph - N/A   Clear
8:58 AM 57.2 °F - 43.7 °F 61% 30.01 in 10.0 mi WSW 2.3 mph - N/A   Clear
9:58 AM 63.0 °F - 39.7 °F 42% 30.01 in 10.0 mi Variable 1.2 mph - N/A   Clear
10:58 AM 67.8 °F - 45.3 °F 44% 29.99 in 10.0 mi SSE 10.4 mph - N/A   Clear
11:58 AM 70.5 °F - 48.6 °F 46% 29.97 in 10.0 mi SSE 16.1 mph 21.9 mph N/A   Clear
12:09 PM 71.6 °F - 48.2 °F 43% 29.98 in 10.0 mi South 15.0 mph - N/A   Clear
12:58 PM 73.0 °F - 40.3 °F 31% 29.94 in 10.0 mi South 16.1 mph 27.6 mph N/A   Clear
1:58 PM 73.8 °F - 40.3 °F 30% 29.90 in 10.0 mi South 19.6 mph 34.5 mph N/A   Clear
2:58 PM 74.7 °F - 39.6 °F 28% 29.88 in 10.0 mi South 21.9 mph 28.8 mph N/A   Clear
3:58 PM 75.0 °F - 41.0 °F 29% 29.86 in 10.0 mi South 21.9 mph 32.2 mph N/A   Clear
4:58 PM 74.5 °F - 39.7 °F 29% 29.84 in 10.0 mi South 18.4 mph 27.6 mph N/A   Clear
5:58 PM 72.1 °F - 41.5 °F 33% 29.82 in 10.0 mi SSE 19.6 mph 25.3 mph N/A   Clear
6:58 PM 66.7 °F - 43.2 °F 42% 29.83 in 10.0 mi SSE 16.1 mph - N/A   Clear
7:58 PM 62.1 °F - 44.2 °F 52% 29.81 in 10.0 mi SSE 13.8 mph - N/A   Clear
8:58 PM 58.8 °F - 44.4 °F 59% 29.81 in 10.0 mi SSE 10.4 mph - N/A   Clear
9:58 PM 58.1 °F - 43.7 °F 59% 29.78 in 10.0 mi South 15.0 mph - N/A   Mostly Cloudy
10:58 PM 59.5 °F - 43.0 °F 54% 29.75 in 10.0 mi South 13.8 mph - N/A   Overcast
11:58 PM 59.2 °F - 43.0 °F 55% 29.73 in 10.0 mi South 15.0 mph - N/A   Partly Cloudy